Showing default

QUETZSAT 1, 37826

Orbit data source: Space-Track

QUETZSAT 1, 37826 is a payload satellite owned by SES Sat. Leasing (MX) in GEO that was launched on Thu, 29 Sep 2011 UTC via a PROTON-M/BRIZ-M launch vehicle from the Tyuratam Missile And Space Complex (TTMTR). Payload-class satellites include a variety of spacecraft equipped with specific instruments for various scientific and technological missions. These include communications satellites like Starlink; space stations such as the ISS; scientific satellites like the Hubble; Earth observation satellites from companies like Planet Labs, Umbra, and HawkEye 360; GPS; miniature CubeSats for education and research; and military/defense satellites.

Loading next visibility...
Identifier
37826, 2011-054A
Orbit
GEO
Country
Flag of MXMX / MEX
Related business
Manufacturer
SS/Loral
Mission
Operational Commercial Communications
Bus & Motor
SSL-1300, R-4D-15-300?
Mass
5,514 kg wet, 2,472 kg dry
Launch date (UTC)
2011-09-29 (15 years ago)
Launch vehicle
PROTON-M/BRIZ-M
Launch site
Tyuratam Missile And Space Complex (TTMTR)
Object type
Payload
Rocket body
Debris
Shape & HBR
Box + 2 Pan, 13.4 m
Radar Cross Section
28.987 m², Large (>1 m²)

Expand to show TLE details & history
Last TLE update: 9 hours ago

TLE from 9 hours ago
0 QUETZSAT 1
1 37826U 11054A   26264.83024303  .00000000  00000-0  00000-0 0  9990
2 37826   0.0145 175.6055 0002749   8.9738  38.0217  1.00269106 50847
Epoch: 2026-09-21T19:55Z
TLE epoch observation values (Epoch: 2026-09-21T19:55:32.997Z)
Latitude
0.02841°
Longitude
-76.98475°
Altitude
35,777.676 km
Speed
3.075 km/s
True Right ascension
14h 50m 25s
True Declination
0° 01' 42"
Sunlit
Object was in daylight at epoch
Visualization orbit readout
Latitude
Unknown
Longitude
Unknown
Altitude
Unknown
Speed
Unknown
Apparent Right ascension
Unknown
Apparent Declination
Unknown
Sunlit
N/A
Visualization observer readout
Local Sidereal Time
22:04:21
Azimuth
Unknown
Elevation
Unknown
Doppler factor
Unknown
Orbital elements
Apogee altitude
35,800.008 km
Perigee altitude
35,776.825 km
Semi-major axis
42,166.553 km
Eccentricity
0.00027
Inclination
0.0145°
RAAN
175.6055°
Arg. of periapsis
8.9738°
True anomaly
38.04111°
Mean anomaly
38.0217°
Eccentric anomaly
38.0314°
Mean motion
0.25066 °/min
Orbital period
1,436.19 mins
BSTAR
0
Loading maneuver chart data...
Computing Atmospheric mass density...
Loading historical data...
Loading historical data...
Loading historical data...
Loading historical data...
Loading historical data...
Loading historical data...
Loading historical data...
Other satellites on launch #54 in the year 2011 (2011-09-29 UTC)

Documentation

Showing up to 5 results
|